Terminal Aerodrome Forecast
Issued by NWS Wilmington, NC

Home | Current Version | Previous Version | Text Only | Print | Product List | Glossary On
Versions: 1 2 3 4 5 6 7 8 9 10 11 12 13 14 15 16 17 18 19 20 21 22 23 24 25 26 27 28
000
FTUS42 KILM 152300
TAFMYR
TAF
KMYR 152321Z 1600/1624 08004KT P6SM SCT020 BKN040
     FM160700 VRB02KT 6SM BR VCSH SCT008 OVC015
     FM161500 36006KT P6SM BKN020 BKN100
     FM161800 14008KT P6SM SCT030 BKN250
      AMD LTD TO CLD VIS AND WIND 1604/1611=

USA.gov is the U.S. government's official web portal to all federal, state and local government web resources and services.